sat.trackr.live / text

‹ back to catalog

STARLINK-5578

NORAD 55374 · 2023-013AV

PAYLOAD ACTIVE UNKNOWN

§ Identity

Operator
Country
US
Launch date
2023-01-26
Launch site
AFETR
Launch vehicle
Mass (kg)
RCS (m²)

Purposes: comms

External: N2YO · Heavens-Above · Gunter

§ Orbital elements

Epoch: 2026-05-25T00:31:12.201600Z

Period
94.27 min
Inclination
43.0015°
Eccentricity
0.0002052
Mean motion
15.27583302 rev/d
Perigee alt
481.6 km
Apogee alt
484.4 km
Semi-major
6,861.2 km
B*
-3.8567e-5
RAAN
250.7544°
Arg perigee
285.7813°
Mean anomaly
74.2813°
Rev number
18,313

§ Raw data

STARLINK-55781 55374U 23013AV  26145.02166900 -.00001324  00000+0 -38567-4 0  99992 55374  43.0015 250.7544 0002052 285.7813  74.2813 15.27583302183136

JSON: /api/v1/satellites/55374 · /tle

For live sub-satellite position, see the globe view (requires WebGL).

§ Visibility from observer

Set your observer location to see the next 7 days of passes ≥ 10°. The values pass through the URL so the page stays shareable.

No JS? Fill the form by hand. The geolocation button needs JavaScript.